sat.trackr.live / text

‹ back to catalog

LIME

NORAD 62648 · 2025-009AR

PAYLOAD ACTIVE UNKNOWN

§ Identity

Operator
Country
US
Launch date
2025-01-14
Launch site
AFWTR
Launch vehicle
Mass (kg)
RCS (m²)

External: N2YO · Heavens-Above · Gunter

§ Orbital elements

Epoch: 2026-09-22T16:33:48.835584Z

Period
93.96 min
Inclination
97.3901°
Eccentricity
0.0002109
Mean motion
15.32619923 rev/d
Perigee alt
466.6 km
Apogee alt
469.4 km
Semi-major
6,846.1 km
B*
2.4640e-4
RAAN
347.7498°
Arg perigee
45.8396°
Mean anomaly
314.3019°
Rev number
9,389

§ Raw data

LIME1 62648U 25009AR  26265.69014856  .00007684  00000+0  24640-3 0  99952 62648  97.3901 347.7498 0002109  45.8396 314.3019 15.32619923 93897

JSON: /api/v1/satellites/62648 · /tle

For live sub-satellite position, see the globe view (requires WebGL).

§ Visibility from observer

Set your observer location to see the next 7 days of passes ≥ 10°. The values pass through the URL so the page stays shareable.

No JS? Fill the form by hand. The geolocation button needs JavaScript.

§ Radio — SatNOGS DB

ModeDescriptionDownlinkUplink
GMSK Mode S - GMSK 48kbps 2.240 GHz
GMSK Mode S - GMSK 96kbps 2.240 GHz

2 transmitters · refreshed weekly from db.satnogs.org